Skip Page Navigation
NASA JPL Caltech
NASA Logo - Jet Propulsion Laboratory + View the NASA Portal
+ Center for Near-Earth Object Studies
JPL Home Earth Solar System Stars & Galaxies Technology
JPL Solar System Dynamics
BODIES ORBITS EPHEMERIDES TOOLS PHYSICAL DATA DISCOVERY FAQ SITE MAP
IMPORTANT: The SSD Announcement email list is now available. Major changes are coming in the near future, including possible hostname and/or URL changes. To be notified of such changes, subscribe to this email list.

Please visit this page for more details.


JPL Small-Body Database Browser
Search: [ help ]  
183458 (2003 BU42)
Classification: Main-belt Asteroid          SPK-ID: 2183458
Ephemeris | Orbit Diagram | Orbital Elements | Mission Design | Physical Parameters | Discovery Circumstances | Close-Approach Data ]

[ show orbit diagram ]
Orbital Elements at Epoch 2458600.5 (2019-Apr-27.0) TDB
Reference: JPL 18 (heliocentric ecliptic J2000)
 Element Value Uncertainty (1-sigma)   Units 
e .166555742738865 3.9982e-08  
a 2.761530233133794 2.0357e-08 au
q 2.301581514058364 1.1274e-07 au
i 9.360355155526422 4.5919e-06 deg
node 67.66725263862239 3.2639e-05 deg
peri 36.9231990745902 3.7287e-05 deg
M 216.8222744573108 1.9547e-05 deg
tp 2459267.147244838003
(2021-Feb-21.64724484)
9.527e-05 TDB
period 1676.189555547352
4.59
1.8534e-05
5.074e-08
d
yr
n .2147728452361365 2.3748e-09 deg/d
Q 3.221478952209225 2.3747e-08 au
  Orbit Determination Parameters
   # obs. used (total)      410  
   data-arc span      6588 days (18.04 yr)  
   first obs. used      2001-10-15  
   last obs. used      2019-10-29  
   planetary ephem.      DE431  
   SB-pert. ephem.      SB431-N16  
   condition code      0  
   norm. resid. RMS      .59099  
   source      ORB  
   producer      Otto Matic  
   solution date      2019-Nov-07 20:41:10  

Additional Information
 Earth MOID = 1.32611 au 
 Jupiter MOID = 1.98454 au 
 T_jup = 3.302 
[ show covariance matrix ]

Ephemeris | Orbit Diagram | Orbital Elements | Mission Design | Physical Parameters | Discovery Circumstances | Close-Approach Data ]

Physical Parameter Table
Parameter Symbol Value Units Sigma Reference Notes
absolute magnitude H 16.0   n/a MPO352125  

183458 (2003 BU42)          Discovered 2003-Jan-29 by NEAT at Palomar
Reference: 20080420/Numbers.arcLast Updated: 2008-04-23

[ show close-approach data ]
Ephemeris | Orbit Diagram | Orbital Elements | Mission Design | Physical Parameters | Discovery Circumstances | Close-Approach Data ]
ABOUT SSD CREDITS/AWARDS PRIVACY/COPYRIGHT GLOSSARY LINKS
FirstGov
(server date/time)  
NASA Home Page
Site Manager:   Ryan S. Park
Webmaster  Alan B. Chamberlin